[[{"header":{"parameterUnit":"m.s-1","parameterCategory":1,"la1":30.2991,"la2":30.254,"lo1":-89.0895,"lo2":-89.0444,"dy":0.0017,"dx":0.0017,"nx":28,"ny":28,"refTime":"2025-01-27T09:00:00:Z","depth":0,"parameterNumber":2,"parameterNumberName":"U-component_of_WINDS"},"data":[0,0,0,0,0,0,0,0,0,0,0,0,0,0,0,0,0,0,0,0,0,0,0,0,0,0,0,0,0,0,0,0,0,0,0,0,0,0,0,0,0,0,0,0,0,0,0,0,0,0,0,0,0,0,0,0,0,0,-1.083,-1.0829,0,-1.0777,-1.0776,-1.0775,-1.0702,-1.0701,-1.07,-1.0698,-1.0645,-1.0644,-1.0644,0,0,0,0,0,0,0,0,0,0,0,0,0,-1.0869,-1.0869,-1.083,-1.0829,-1.0829,-1.0777,-1.0776,-1.0775,-1.0702,-1.0701,-1.0699,-1.0698,-1.0645,-1.0644,-1.0644,0,0,0,0,0,0,0,0,0,0,0,0,0,-1.0838,-1.0869,-1.083,-1.0786,-1.0781,-1.0777,-1.0776,-1.0775,-1.0703,-1.0701,-1.0699,-1.0697,-1.0645,-1.0645,-1.0644,-1.0679,0,0,-1.0643,-1.0643,0,0,0,0,0,0,0,0,-1.084,-1.0836,-1.0793,-1.0789,-1.0784,-1.0744,-1.077,-1.0743,-1.0703,-1.0733,-1.0698,-1.0696,-1.0679,-1.0676,-1.067,-1.0676,-1.0674,-1.0643,-1.0643,-1.0642,-1.0642,0,0,0,0,0,0,0,-1.0842,-1.0838,-1.0809,-1.0793,-1.0787,-1.0769,-1.0763,-1.0765,-1.0717,-1.073,-1.0724,-1.0719,-1.0676,-1.0671,-1.0668,-1.0673,-1.0643,-1.0642,-1.0642,-1.0642,-1.0706,-1.0708,0,0,0,0,0,0,-1.0851,-1.0841,-1.081,-1.0807,-1.0808,-1.077,-1.0763,-1.0759,-1.0717,-1.0709,-1.0721,-1.0716,-1.0672,-1.0669,-1.0666,-1.0705,-1.0642,-1.0642,-1.0642,-1.0704,-1.0706,-1.0708,0,0,0,0,0,0,-1.0852,-1.0849,-1.0813,-1.0822,-1.0816,-1.0771,-1.0767,-1.0759,-1.0753,-1.071,-1.0701,-1.0724,-1.0671,-1.0667,-1.0676,-1.0702,-1.0642,-1.0641,-1.0702,-1.0705,-1.0707,-1.0782,0,0,0,0,0,0,-1.0853,-1.0849,-1.0862,-1.0823,-1.0816,-1.0824,-1.0769,-1.0759,-1.0752,-1.0745,-1.071,-1.0703,-1.0669,-1.0677,-1.0676,-1.07,-1.0641,-1.0699,-1.0703,-1.0706,-1.0777,-1.0787,-1.0795,0,0,0,0,0,-1.0855,-1.0885,-1.0863,-1.086,-1.0831,-1.0825,-1.0821,-1.0782,-1.0755,-1.0767,-1.0739,-1.0704,-1.0699,-1.0679,-1.0677,-1.0701,-1.0697,-1.0702,-1.0706,-1.0773,-1.0785,-1.0795,0,0,0,0,0,0,-1.0928,-1.0879,-1.0854,-1.0873,-1.0854,-1.0813,-1.0827,-1.0796,-1.0784,-1.0779,-1.073,-1.0723,-1.0739,-1.072,-1.0699,-1.0733,-1.0693,-1.0697,-1.0744,-1.0756,-1.0765,-1.0769,-1.0641,0,0,0,0,0,-1.0946,-1.0946,-1.0903,-1.0923,-1.0915,-1.0873,-1.0869,-1.084,-1.0819,-1.0811,-1.0784,-1.0765,-1.0759,-1.0756,-1.0748,-1.0774,-1.0765,-1.0789,-1.0799,-1.0807,-1.0811,-1.0824,-1.0835,-1.0723,-1.0723,-1.0723,0,0,-1.0984,-1.0957,-1.096,-1.0937,-1.0919,-1.092,-1.0867,-1.087,-1.087,-1.0811,-1.0819,-1.0798,-1.0774,-1.0792,-1.0798,-1.0777,-1.084,-1.0812,-1.0819,-1.0819,-1.083,-1.084,-1.085,-1.0726,-1.0725,-1.0725,0,0,-1.1054,-1.1033,-1.1048,-1.1031,-1.1004,-1.0976,-1.098,-1.0944,-1.0928,-1.0935,-1.0891,-1.0891,-1.0882,-1.0866,-1.0857,-1.0921,-1.0888,-1.092,-1.0969,-1.0982,-1.0991,-1.0999,-1.1023,-1.1032,-1.0924,-1.0925,-1.0925,0,-1.1104,-1.1103,-1.106,-1.1066,-1.1058,-1.1004,-1.1019,-1.1005,-1.0978,-1.0973,-1.095,-1.0938,-1.0917,-1.0931,-1.0947,-1.0941,-1.0945,-1.0924,-1.0993,-1.1001,-1.1007,-1.1029,-1.1038,-1.0929,-1.0928,-1.0928,-1.0927,0,-1.1167,-1.1168,-1.1183,-1.1158,-1.1151,-1.1162,-1.1121,-1.1119,-1.1091,-1.1066,-1.1074,-1.1047,-1.1034,-1.1034,-1.1007,-1.1045,-1.1033,-1.1002,-1.0961,-1.1023,-1.1043,-1.1051,-1.0935,-1.0933,-1.0932,-1.0931,0,0,-1.1282,-1.1233,-1.1239,-1.1227,-1.1194,-1.1194,-1.1202,-1.1189,-1.1189,-1.1171,-1.1178,-1.1172,-1.1143,-1.1133,-1.1103,-1.1115,-1.1169,-1.1082,-1.1081,-1.11,-1.121,-1.1235,-1.1245,-1.1146,-1.1148,-1.1149,-1.1213,0,-1.1346,-1.1358,-1.1319,-1.1341,-1.1341,-1.129,-1.1297,-1.1278,-1.1255,-1.1252,-1.1225,-1.1222,-1.1184,-1.1178,-1.1187,-1.116,-1.119,-1.1155,-1.1153,-1.1153,-1.1162,-1.1255,-1.1281,-1.1343,-1.122,-1.1221,-1.1222,0,-1.1422,-1.1409,-1.1431,-1.1397,-1.1396,-1.1403,-1.1388,-1.1386,-1.1363,-1.1345,-1.1334,-1.13,-1.1306,-1.1266,-1.1275,-1.1252,-1.1248,-1.1235,-1.1237,-1.1236,-1.1192,-1.1258,-1.1361,-1.1371,-1.1234,-1.1233,-1.1232,0,-1.1505,-1.1493,-1.1505,-1.1496,-1.1456,-1.1463,-1.1447,-1.1422,-1.1417,-1.1404,-1.14,-1.1388,-1.1381,-1.1373,-1.1336,-1.131,-1.135,-1.1307,-1.1336,-1.1337,-1.1347,-1.1347,-1.1452,-1.1344,-1.1343,-1.1343,-1.1343,0,-1.1581,-1.1597,-1.1542,-1.1549,-1.1565,-1.1521,-1.1538,-1.1517,-1.1496,-1.1498,-1.1453,-1.1457,-1.1407,-1.1406,-1.1377,-1.1389,-1.1386,-1.1373,-1.1365,-1.1377,-1.138,-1.1375,-1.1371,-1.1346,-1.1345,-1.1345,-1.1344,0,-1.1677,-1.164,-1.165,-1.1612,-1.1603,-1.1617,-1.1584,-1.159,-1.1563,-1.1567,-1.1566,-1.1524,-1.152,-1.1482,-1.147,-1.145,-1.1474,-1.1458,-1.1482,-1.1477,-1.1509,-1.1507,-1.1616,-1.1629,-1.1511,-1.1512,-1.1513,0,-1.1729,-1.174,-1.1703,-1.1701,-1.1688,-1.1686,-1.168,-1.1636,-1.1633,-1.1608,-1.1617,-1.1609,-1.16,-1.1596,-1.1565,-1.1555,-1.1539,-1.1578,-1.1537,-1.155,-1.1541,-1.1541,-1.1543,-1.1587,-1.1588,-1.159,-1.159,0,-1.1825,-1.1806,-1.18,-1.1787,-1.1782,-1.177,-1.1755,-1.1756,-1.1708,-1.1706,-1.1701,-1.1695,-1.1682,-1.1675,-1.166,-1.1643,-1.161,-1.1603,-1.161,-1.1623,-1.1638,-1.1631,-1.1507,-1.1601,-1.16,-1.1599,-1.1599,-1.1598,-1.1901,-1.1909,-1.1884,-1.1878,-1.1863,-1.185,-1.1854,-1.1828,-1.1823,-1.1809,-1.1784,-1.1783,-1.176,-1.1736,-1.1723,-1.1722,-1.1702,-1.1711,-1.1713,-1.1717,-1.1724,-1.1637,-1.1719,-1.1718,-1.1718,-1.1718,-1.1718,0,-1.1995,-1.1977,-1.1972,-1.1953,-1.1949,-1.1917,-1.1899,-1.1898,-1.1898,-1.1879,-1.1872,-1.1867,-1.186,-1.1829,-1.1818,-1.1824,-1.1808,-1.1823,-1.1823,-1.182,-1.1742,-1.1738,-1.1836,-1.1836,-1.1836,-1.1836,-1.1836,-1.1836,-1.2044,-1.2056,-1.2035,-1.2038,-1.202,-1.2019,-1.2011,-1.2,-1.1985,-1.1981,-1.1975,-1.1955,-1.1931,-1.1919,-1.1912,-1.1903,-1.1902,-1.1922,-1.1908,-1.1836,-1.1825,-1.1814,-1.181,-1.1922,-1.1922,-1.1986,-1.1987,-1.1987]},{"header":{"parameterUnit":"m.s-1","parameterCategory":1,"la1":30.2991,"la2":30.254,"lo1":-89.0895,"lo2":-89.0444,"dy":0.0017,"dx":0.0017,"nx":28,"ny":28,"refTime":"2025-01-27T09:00:00:Z","depth":0,"parameterNumber":3,"parameterNumberName":"V-component_of_WINDS"},"data":[0,0,0,0,0,0,0,0,0,0,0,0,0,0,0,0,0,0,0,0,0,0,0,0,0,0,0,0,0,0,0,0,0,0,0,0,0,0,0,0,0,0,0,0,0,0,0,0,0,0,0,0,0,0,0,0,0,0,0.0918,0.0918,0,0.0919,0.0919,0.0919,0.0951,0.0952,0.0953,0.0953,0.0955,0.0954,0.0953,0,0,0,0,0,0,0,0,0,0,0,0,0,0.0942,0.0941,0.0917,0.0918,0.0918,0.0919,0.0919,0.0919,0.0951,0.0952,0.0953,0.0954,0.0955,0.0954,0.0953,0,0,0,0,0,0,0,0,0,0,0,0,0,0.0936,0.0941,0.0917,0.0933,0.0935,0.0919,0.0919,0.0919,0.0951,0.0952,0.0953,0.0954,0.0955,0.0954,0.0953,0.0922,0,0,0.095,0.0949,0,0,0,0,0,0,0,0,0.0937,0.0935,0.0931,0.0932,0.0934,0.0936,0.0928,0.092,0.095,0.0945,0.0953,0.0955,0.0948,0.0947,0.0945,0.0922,0.0922,0.095,0.0949,0.0949,0.0948,0,0,0,0,0,0,0,0.0937,0.0935,0.0918,0.0931,0.0933,0.0941,0.0941,0.0927,0.0939,0.0945,0.0948,0.0947,0.0949,0.0946,0.0945,0.0922,0.095,0.0949,0.0948,0.0948,0.0874,0.0873,0,0,0,0,0,0,0.0935,0.0936,0.0918,0.0918,0.0938,0.0939,0.094,0.0934,0.0939,0.0941,0.0946,0.0949,0.0947,0.0946,0.0945,0.0909,0.0949,0.0948,0.0947,0.0875,0.0874,0.0872,0,0,0,0,0,0,0.0935,0.0933,0.0918,0.0928,0.0926,0.0938,0.0931,0.0934,0.0931,0.094,0.0943,0.0941,0.0948,0.0947,0.0928,0.0909,0.0947,0.0946,0.0877,0.0875,0.0873,0.0835,0,0,0,0,0,0,0.0936,0.0933,0.0921,0.0927,0.0926,0.09,0.093,0.0933,0.0929,0.0932,0.0936,0.0938,0.0949,0.0929,0.0926,0.0908,0.0945,0.0878,0.0876,0.0874,0.0838,0.0832,0.0827,0,0,0,0,0,0.0937,0.0911,0.0921,0.0918,0.0911,0.0899,0.0898,0.0911,0.0927,0.0915,0.0922,0.0938,0.0912,0.0927,0.0924,0.0905,0.088,0.0877,0.0874,0.0841,0.0833,0.0827,0,0,0,0,0,0,0.0902,0.0912,0.0923,0.0898,0.0897,0.0904,0.089,0.0903,0.0898,0.0902,0.0918,0.0919,0.0897,0.09,0.0916,0.0876,0.0899,0.0895,0.0874,0.0867,0.0862,0.0861,0.0944,0,0,0,0,0,0.0892,0.0881,0.089,0.0867,0.0866,0.0878,0.0873,0.0884,0.0884,0.0884,0.0889,0.0888,0.088,0.0874,0.0867,0.0839,0.084,0.0825,0.082,0.0815,0.0811,0.0796,0.0789,0.0863,0.0863,0.0863,0,0,0.087,0.0874,0.0866,0.086,0.0861,0.085,0.0878,0.0864,0.0856,0.0882,0.0864,0.0867,0.0868,0.0844,0.0834,0.0846,0.0792,0.0811,0.0808,0.0806,0.0792,0.0785,0.0779,0.086,0.0861,0.0861,0,0,0.0824,0.0826,0.0807,0.0807,0.0808,0.0816,0.0812,0.0817,0.082,0.0803,0.0822,0.0812,0.0798,0.0797,0.0795,0.075,0.0764,0.0747,0.0718,0.0703,0.0697,0.0692,0.0675,0.0669,0.0744,0.0744,0.0744,0,0.0796,0.078,0.0795,0.0781,0.0777,0.0801,0.0781,0.0781,0.078,0.0777,0.0791,0.0773,0.0775,0.0751,0.074,0.0738,0.0733,0.0746,0.0697,0.0692,0.0687,0.0671,0.0665,0.0741,0.0742,0.0742,0.0742,0,0.0745,0.0734,0.0718,0.0716,0.0712,0.0695,0.0708,0.0701,0.0712,0.0719,0.07,0.0704,0.0698,0.0693,0.0704,0.0671,0.0678,0.0694,0.0717,0.0678,0.0663,0.0657,0.0738,0.0739,0.074,0.074,0,0,0.0676,0.0684,0.0678,0.0677,0.068,0.0671,0.0656,0.065,0.0644,0.0643,0.0629,0.0617,0.0632,0.0629,0.064,0.0628,0.059,0.0645,0.0645,0.0634,0.0553,0.054,0.0532,0.06,0.0599,0.0599,0.0553,0,0.0631,0.0604,0.0618,0.0589,0.0578,0.0601,0.0587,0.0588,0.0594,0.0586,0.0593,0.0583,0.0604,0.0602,0.0591,0.0597,0.0574,0.0601,0.0588,0.0587,0.0585,0.0525,0.0511,0.0467,0.0547,0.0546,0.0545,0,0.0574,0.057,0.054,0.0546,0.0542,0.0529,0.0525,0.0517,0.0518,0.0524,0.0521,0.0535,0.052,0.0544,0.0524,0.0541,0.0537,0.054,0.0538,0.0536,0.0563,0.052,0.0454,0.0447,0.0536,0.0537,0.0538,0,0.0525,0.0513,0.0493,0.0492,0.0498,0.0489,0.0491,0.0493,0.0489,0.0486,0.0483,0.0478,0.0475,0.047,0.0483,0.0499,0.046,0.0485,0.0463,0.0463,0.0453,0.0453,0.0383,0.0452,0.0452,0.0452,0.0452,0,0.0472,0.0453,0.0471,0.0459,0.0438,0.0455,0.0433,0.0438,0.044,0.0429,0.0449,0.0438,0.0456,0.0447,0.0457,0.0438,0.0437,0.044,0.0443,0.0437,0.0437,0.0434,0.0437,0.0451,0.0451,0.0451,0.0452,0,0.0413,0.0425,0.0405,0.0413,0.0414,0.0398,0.0405,0.0394,0.0402,0.0388,0.0385,0.0397,0.0388,0.04,0.0392,0.0399,0.0372,0.038,0.0371,0.0373,0.035,0.0352,0.0275,0.0266,0.0341,0.0341,0.034,0,0.0378,0.0363,0.037,0.0364,0.0365,0.0355,0.0351,0.0367,0.0362,0.0362,0.0351,0.0343,0.0338,0.0322,0.033,0.0323,0.033,0.0304,0.033,0.0325,0.0329,0.0329,0.0327,0.0298,0.0298,0.0297,0.0296,0,0.0314,0.032,0.0313,0.0308,0.0303,0.03,0.0298,0.0292,0.0309,0.0302,0.0293,0.0289,0.028,0.0272,0.0268,0.0271,0.0286,0.0288,0.0283,0.0277,0.0272,0.0273,0.0356,0.029,0.029,0.0291,0.0291,0.0291,0.0265,0.0253,0.0255,0.0247,0.0248,0.0246,0.0236,0.0242,0.0235,0.0229,0.024,0.0227,0.0229,0.0226,0.0226,0.0217,0.0228,0.022,0.0218,0.0215,0.0211,0.0274,0.0216,0.0217,0.0217,0.0217,0.0217,0,0.0201,0.0203,0.0196,0.0193,0.0186,0.0202,0.0201,0.0194,0.0184,0.0184,0.0179,0.0168,0.016,0.0168,0.0161,0.0152,0.0159,0.015,0.015,0.015,0.0202,0.0207,0.0145,0.0145,0.0145,0.0145,0.0145,0.0145,0.0166,0.0147,0.0154,0.0135,0.0138,0.0126,0.0124,0.0123,0.0123,0.011,0.0104,0.0109,0.0113,0.0107,0.01,0.0103,0.0099,0.0087,0.0092,0.014,0.0147,0.0154,0.0158,0.0087,0.0087,0.0041,0.0041,0.004]}]]